Location: Brede
(50.9167°N, 0.6000°E)
Time: 18:51:11
(UTC+00:00)

Tiros 1 despin weight - Pass Details

Date: 27 November 2020
Orbit: 594 x 641 km, 48.2° (Epoch: 15 January)

Event Time Altitude Azimuth Distance (km) Brightness Sun altitude
Rises 19:04:01 0° 276° (W) 2,936 ? -28.6°
Reaches altitude 10° 19:07:36 10° 248° (WSW) 2,015 ? -29.2°
Maximum altitude 19:09:36 13° 222° (SW) 1,834 ? -29.5°
Enters shadow 19:11:26 10° 198° (SSW) 1,977 ? -29.8°
